Terminal Aerodrome Forecast
Issued by NWS

Home | Current Version | Previous Version | Graphics & Text | Print | Product List | Glossary Off
Versions: 1 2 3 4 5 6 7 8 9 10 11 12 13 14 15 16 17 18 19 20 21 22 23 24 25 26 27 28 29 30 31 32 33 34 35 36 37 38

000
FTUS43 KDDC 312320
TAFHYS
TAF
KHYS 312320Z 0100/0124 14014G18KT P6SM FEW050
     FM010900 16010KT P6SM VCTS BKN050CB
     FM011300 16013KT P6SM SCT050=

USA.gov is the U.S. government's official web portal to all federal, state and local government web resources and services.